If you wish to contribute or participate in the discussions about articles you are invited to join SKYbrary as a registered user

 Actions

Figari Sud-Corse Airport

From SKYbrary Wiki

LFKF
Airport
ICAO: LFKF – IATA: FSC
Summary
Name Figari Sud-Corse Airport
Region Europe
Territory France FR.gif
Location , Corse
Serving Figari
Elevation 26.518 m
87 ft
87 ft26.518 m
Type medium airport
Coordinates 41° 30' 2.01" N, 9° 5' 52.00" E
Runways
Designator Length Width Surface ROPS
5/23 2480 m8,136.483 ft
45 m147.638 ft
ASP yes/yes


METAR
Observation LFKF 222000Z AUTO 06014KT 020V090 9999 BKN023 BKN030 BKN240 14/10 Q1028 BECMG 05015G25KT
Station Figari
Date/Time 22 January 2020 20:00:00
Wind direction 60°
Wind speed 14 kts
Lowest cloud amount broken clouds
Temperature 14°C
Dew point 10°C
Humidity 76%
QNH 1028 hPa
Weather condition n/a